This demonstration page uses our WeatherBlox Daily Observations layout. Learn more.

Hourly Observations for August 13, 2016

Temp ( °F °C ) Dew Point ( °F °C ) Humidity (%) Winds ( mph kmh ) Pressure ( in mb ) Visibility ( mi km ) Precip ( " mm )
12:15 am 00:15 Clear 65 18.1 62 16.6 91 91 Calm 30.03 1017 10 16.09344 0 0
12:35 am 00:35 Clear 64 18 62 16.4 90 90 Calm 30.03 1017 10 16.09344 0 0
12:55 am 00:55 Clear 65 18.1 61 16.1 88 88 Calm 30.03 1017 10 16.09344 0 0
1:15 am 01:15 Clear 63 17 60 15.7 92 92 Calm 30.03 1017 10 16.09344 0 0
1:35 am 01:35 Clear 63 17 60 15.8 93 93 Calm 30.03 1017 10 16.09344 0 0
1:55 am 01:55 Clear 63 17.1 60 15.5 90 90 Calm 30.03 1017 10 16.09344 0 0
2:15 am 02:15 Clear 63 17.1 60 15.6 91 91 Calm 30.03 1017 10 16.09344 0 0
2:35 am 02:35 Clear 63 17.1 60 15.4 90 90 Calm 30.03 1017 10 16.09344 0 0
2:55 am 02:55 Clear 63 17.1 58 14.5 85 85 Calm 30.03 1017 10 16.09344 0 0
3:15 am 03:15 Clear 62 16.5 58 14.7 89 89 Calm 30.06 1018 10 16.09344 0 0
3:35 am 03:35 Clear 63 17.1 59 15 88 88 Calm 30 1016 10 16.09344 0 0
3:55 am 03:55 Clear 63 17.4 59 14.9 85 85 Calm 30 1016 10 16.09344 0 0
4:15 am 04:15 Clear 60 15.7 58 14.4 92 92 Calm 30.03 1017 10 16.09344 0 0
4:35 am 04:35 Clear 59 15.1 57 14.1 94 94 W 3 6 30.03 1017 10 16.09344 0 0
4:55 am 04:55 Clear 59 15.1 57 14 93 93 W 5 7 30.03 1017 10 16.09344 0 0
5:15 am 05:15 Clear 61 16.3 59 14.9 91 91 Calm 30.03 1017 10 16.09344 0 0
5:35 am 05:35 Clear 62 16.9 58 14.7 87 87 W 6 9 30 1016 10 16.09344 0 0
5:55 am 05:55 Clear 62 16.5 58 14.5 88 88 W 5 7 30.03 1017 10 16.09344 0 0
6:15 am 06:15 Clear 62 16.7 58 14.3 86 86 W 7 11 30 1016 10 16.09344 0 0
6:35 am 06:35 Clear 64 17.5 57 14.1 81 81 WNW 6 9 30 1016 10 16.09344 0 0
6:55 am 06:55 Sunny 63 17 57 14 83 83 WNW 6 9 30.03 1017 10 16.09344 0 0
7:15 am 07:15 Sunny 64 17.6 57 13.9 79 79 WNW 7 11 30.03 1017 10 16.09344 0 0
7:35 am 07:35 Sunny 64 17.6 57 14 80 80 WNW 7 11 30.03 1017 10 16.09344 0 0
7:55 am 07:55 Sunny 64 18 58 14.4 80 80 W 6 9 30.03 1017 10 16.09344 0 0
8:15 am 08:15 Sunny 66 19.1 59 14.9 77 77 WNW 5 7 30.03 1017 10 16.09344 0 0
8:35 am 08:35 Sunny 68 20.2 59 15.2 73 73 WNW 5 7 30.03 1017 10 16.09344 0 0
8:55 am 08:55 Sunny 70 21 60 15.4 70 70 WNW 5 7 30 1016 10 16.09344 0 0
9:15 am 09:15 Sunny 72 22 61 16 69 69 NW 6 9 30 1016 10 16.09344 0 0
9:35 am 09:35 Sunny 73 22.6 58 14.6 61 61 WNW 7 11 30.03 1017 10 16.09344 0 0
9:55 am 09:55 Sunny 74 23.2 59 15.1 60 60 NNW 10 17 30.03 1017 10 16.09344 0 0
10:15 am 10:15 Sunny 74 23.6 60 15.3 60 60 NW 6 9 30.03 1017 10 16.09344 0 0
10:35 am 10:35 Sunny 75 23.7 58 14.7 57 57 N 10 17 30.03 1017 10 16.09344 0 0
10:55 am 10:55 Sunny 75 24.1 59 14.8 56 56 N 5 7 30.03 1017 10 16.09344 0 0
11:15 am 11:15 Sunny 77 25.2 58 14.7 52 52 N 5 7 30 1016 10 16.09344 0 0
11:35 am 11:35 Sunny 78 25.7 57 13.9 48 48 NNE 3 6 30 1016 10 16.09344 0 0
11:55 am 11:55 Sunny 79 26.2 58 14.3 48 48 NE 7 11 30 1016 10 16.09344 0 0
12:15 pm 12:15 Sunny 80 26.7 57 14.1 46 46 Calm 30 1016 10 16.09344 0 0
12:35 pm 12:35 Sunny 81 27.2 58 14.6 46 46 NE 6 9 30 1016 10 16.09344 0 0
12:55 pm 12:55 Sunny 81 27.2 58 14.5 46 46 E 5 7 30 1016 10 16.09344 0 0
1:15 pm 13:15 Sunny 81 27.4 57 13.9 44 44 Calm 30 1016 10 16.09344 0 0
1:35 pm 13:35 Sunny 82 27.6 58 14.4 44 44 Calm 29.97 1015 10 16.09344 0 0
1:55 pm 13:55 Sunny 83 28.1 57 14.1 42 42 ENE 3 6 29.94 1014 10 16.09344 0 0
2:15 pm 14:15 Sunny 83 28.3 58 14.4 43 43 ENE 5 7 29.94 1014 10 16.09344 0 0
2:35 pm 14:35 Sunny 83 28.5 57 13.8 41 41 Calm 29.94 1014 10 16.09344 0 0
2:55 pm 14:55 Sunny 84 28.7 57 13.9 40 40 NNE 3 6 29.94 1014 10 16.09344 0 0
3:15 pm 15:15 Sunny 84 29 57 14.1 40 40 E 3 6 29.91 1013 10 16.09344 0 0
3:35 pm 15:35 Sunny 84 29 57 14.1 40 40 SE 5 7 29.91 1013 10 16.09344 0 0
3:55 pm 15:55 Sunny 85 29.5 56 13.6 38 38 ESE 6 9 29.91 1013 10 16.09344 0 0
4:15 pm 16:15 Sunny 84 29 56 13.3 38 38 Calm 29.91 1013 10 16.09344 0 0
4:35 pm 16:35 Sunny 84 28.8 55 12.7 37 37 Calm 29.91 1013 10 16.09344 0 0
4:55 pm 16:55 Sunny 85 29.5 57 13.8 38 38 E 8 13 29.88 1012 10 16.09344 0 0
5:15 pm 17:15 Sunny 85 29.4 55 12.8 36 36 E 7 11 29.88 1012 10 16.09344 0 0
5:35 pm 17:35 Sunny 85 29.5 56 13.3 37 37 ENE 7 11 29.88 1012 10 16.09344 0 0
5:55 pm 17:55 Sunny 85 29.2 56 13.1 37 37 E 5 7 29.88 1012 10 16.09344 0 0
6:15 pm 18:15 Sunny 84 28.9 56 13.6 39 39 E 8 13 29.88 1012 10 16.09344 0 0
6:35 pm 18:35 Sunny 84 28.8 56 13.3 39 39 E 7 11 29.88 1012 10 16.09344 0 0
6:55 pm 18:55 Sunny 81 27 60 15.8 50 50 E 5 7 29.91 1013 10 16.09344 0 0
7:15 pm 19:15 Sunny 78 25.6 62 16.8 58 58 E 5 7 29.91 1013 10 16.09344 0 0
7:35 pm 19:35 Sunny 77 25.1 63 17.3 62 62 ENE 6 9 29.91 1013 10 16.09344 0 0
7:55 pm 19:55 Sunny 76 24.2 65 18.4 70 70 ENE 6 9 29.91 1013 10 16.09344 0 0
8:15 pm 20:15 Sunny 75 23.7 65 18.1 71 71 ENE 7 11 29.91 1013 10 16.09344 0 0
8:35 pm 20:35 Sunny 74 23.3 64 17.7 71 71 ENE 6 9 29.97 1015 10 16.09344 0 0
8:55 pm 20:55 Clear 72 22.3 65 18.1 77 77 ENE 7 11 29.97 1015 10 16.09344 0 0
9:15 pm 21:15 Clear 72 22 65 18.1 79 79 ENE 7 11 29.97 1015 10 16.09344 0 0
9:35 pm 21:35 Clear 73 23 63 17 69 69 E 6 9 30 1016 10 16.09344 0 0
9:55 pm 21:55 Mostly Cloudy 73 22.8 63 17.3 71 71 E 8 13 30 1016 10 16.09344 0 0
10:15 pm 22:15 Mostly Cloudy 73 22.8 63 17.1 70 70 W 8 13 30.03 1017 10 16.09344 0 0
10:35 pm 22:35 Mostly Cloudy 74 23.6 60 15.3 60 60 Calm 30.03 1017 10 16.09344 0 0
10:55 pm 22:55 Partly Cloudy 71 21.6 57 13.9 62 62 Calm 30 1016 10 16.09344 0 0
11:15 pm 23:15 Clear 69 20.3 58 14.6 70 70 Calm 30.06 1018 10 16.09344 0 0
11:35 pm 23:35 Clear 68 20 57 13.9 68 68 Calm 30.06 1018 10 16.09344 0 0
11:55 pm 23:55 Clear with Nearby Thunderstorms 67 19.5 57 14.1 71 71 N 8 13 30.06 1018 10 16.09344 0 0

Powered by AerisWeather